Regional Weather Roundup
Issued by NWS

Home | Current Version | Previous Version | Graphics & Text | Print | Product List | Glossary On
Versions: 1 2 3 4 5 6 7 8 9 10 11 12 13 14 15 16 17 18 19 20 21 22 23 24 25 26 27 28 29 30 31 32 33 34 35 36 37 38 39 40 41 42 43 44 45 46 47 48 49 50
000
ASUS43 KDMX 271207
RWRIA

WEATHER ROUNDUP FOR IOWA
NATIONAL WEATHER SERVICE DES MOINES IA
600 AM CST THU NOV 27 2014

NOTE: "FAIR" INDICATES FEW OR NO CLOUDS BELOW 12,000 FEET WITH NO
SIGNIFICANT WEATHER AND/OR OBSTRUCTIONS TO VISIBILITY.

* - THESE STATIONS ARE NOT NWS STATIONS...THUS NOT UNDER NWS
QUALITY CONTROL.  THEY ALSO DO NOT REPORT WEATHER SUCH
AS PRECIPITATION OR FOG.

IAZ001>003-012>014-020>022-031>034-043>046-271300-
   NORTHWEST IOWA

CITY           SKY/WX    TMP DP  RH WIND       PRES   REMARKS
CARROLL *      PTCLDY     1  -9  60 NW8       30.51R WCI -12
CHEROKEE *     MOCLDY    -3  -9  77 CALM      30.52R
DENISON *      MOCLDY     5  -6  61 N7        30.48S WCI  -7
LE MARS *      CLEAR      1  -6  71 CALM      30.53R
ORANGE CITY *  CLEAR      0  -8  71 CALM      30.48R
SHELDON *      PTCLDY    -8 -13  77 NW5       30.48R WCI -19
SIOUX CITY     CLOUDY    10  -5  50 N9        30.51S WCI  -3
6HR MIN TEMP:  10; 6HR MAX TEMP:  16;

SPENCER        PTCLDY   N/A N/A N/A N9        30.49S
STORM LAKE *   CLEAR     -4 -13  65 NW10      30.48S WCI -21
$$

IAZ055>058-069>071-079>083-090>094-271300-
   SOUTHWEST IOWA

CITY           SKY/WX    TMP DP  RH WIND       PRES   REMARKS
ATLANTIC *     CLOUDY     9   3  78 NE5       30.49F WCI   0
AUDUBON *      CLEAR      5  -4  66 NW5       30.49R WCI  -4
CLARINDA *     CLEAR     16  10  79 N7        30.52F WCI   6
COUNCIL BLFS * CLOUDY    16  12  86 N9        30.48R WCI   4
CRESTON *      CLEAR     10   5  79 N7        30.47S WCI   0
HARLAN  *      CLOUDY    10   1  67 N9        30.53S WCI  -2
LAMONI         CLOUDY    19  15  84 NW12      30.46R WCI   7
6HR MIN TEMP:  19; 6HR MAX TEMP:  24;

RED OAK *      CLOUDY    16  10  79 N7        30.50F WCI   6
SHENANDOAH *   CLEAR     14  10  85 NE5       30.51F WCI   6
$$

IAZ047>049-059>061-072>074-084-271300-
   CENTRAL IOWA

CITY           SKY/WX    TMP DP  RH WIND       PRES   REMARKS
AMES           PTCLDY     2  -5  72 NW10      30.49R WCI -14
6HR MIN TEMP:   2; 6HR MAX TEMP:  19; 6HR PCP: TRACE;

ANKENY *       PTCLDY     7   1  78 NW6       30.50R WCI  -3
CHARITON *     CLOUDY    18  12  79 NW13      30.47R WCI   4
DES MOINES     PTCLDY     8   0  69 NW13      30.50R WCI  -8
6HR MIN TEMP:   8; 6HR MAX TEMP:  22; 6HR PCP: TRACE;

GRINNELL*      CLEAR      7   3  85 NW15      30.46R WCI -11
KNOXVILLE *    FLURRIES  14   9  79 NW16      30.46R WCI  -2
MARSHALLTOWN   CLEAR      3  -1  83 NW15      30.45R WCI -16
6HR MIN TEMP:   3; 6HR MAX TEMP:  22;

PELLA *        CLOUDY    12   7  81 NW14      30.49R WCI  -4
PERRY *          N/A      3  -2  78 N12       30.51R WCI -13
$$

IAZ004>006-015-016-023>025-035-036-271300-
   NORTH CENTRAL IOWA

CITY           SKY/WX    TMP DP  RH WIND       PRES   REMARKS
ALGONA *       CLEAR     -8 -13  77 N10       30.49R WCI -26
CLARION *      CLOUDY    -6 -11  77 NW10      30.48R WCI -23
ESTHERVILLE    PTCLDY    -9 -13  83 NW13      30.48R WCI -29
6HR MIN TEMP:  -9; 6HR MAX TEMP:   4;

FORT DODGE *   PTCLDY    -2 -11  65 NW6       30.50R WCI -14
MASON CITY     PTCLDY    -5  -9  83 NW13      30.46R WCI -24
6HR MIN TEMP:  -5; 6HR MAX TEMP:  13; 6HR PCP: TRACE;

FOREST CITY *    N/A     -4  -8  84 NW9       30.46R WCI -20
IOWA FALLS *     N/A      0  -6  78 NW14      30.46R WCI -19
$$

IAZ007>011-017>019-026>030-037>042-050>054-066-271300-
   NORTHEAST IOWA

CITY           SKY/WX    TMP DP  RH WIND       PRES   REMARKS
CEDAR RAPIDS   FLURRIES  18  14  84 NW15      30.39R WCI   4
6HR MIN TEMP:  18; 6HR MAX TEMP:  25; 6HR PCP: TRACE;

CHARLES CITY * CLEAR      1  -6  71 NW12      30.43R WCI -15
CLINTON *      CLOUDY    23  19  86 W8        30.37S WCI  14
DECORAH *      PTCLDY    10   5  79 NW13      30.37R WCI  -5
DUBUQUE        CLOUDY    21  16  81 NW16      30.33R WCI   7
6HR MIN TEMP:  21; 6HR MAX TEMP:  23;

MONTICELLO *   CLOUDY    21  16  79 NW13      30.37R WCI   9
OELWEIN *      FLURRIES  12   7  79 NW13      30.39R WCI  -3
WATERLOO       CLEAR      6   2  83 W8        30.43R WCI  -7
6HR MIN TEMP:   6; 6HR MAX TEMP:  24; 6HR PCP: TRACE;

$$

IAZ064-065-067-068-078-271300-
   EAST CENTRAL IOWA

CITY           SKY/WX    TMP DP  RH WIND       PRES   REMARKS
DAVENPORT      LGT SNOW  25  19  78 W15       30.36R WCI  13
6HR MIN TEMP:  18; 6HR MAX TEMP:  25; 6HR PCP: TRACE;

IOWA CITY      CLOUDY    20  15  81 NW12      30.42R WCI   8
6HR MIN TEMP:  19; 6HR MAX TEMP:  27; 6HR PCP: TRACE;

MT. PLEASANT * CLOUDY    22  18  86 W14       30.42R WCI   9
MUSCATINE *    CLOUDY    25  19  80 W18       30.40R WCI  11
QUAD CITIES    CLOUDY    26  20  77 W9        30.36R WCI  17
6HR MIN TEMP:  23; 6HR MAX TEMP:  26;

$$

IAZ062-063-075>077-085>089-095>099-271300-
   SOUTHEAST IOWA

CITY           SKY/WX    TMP DP  RH WIND       PRES   REMARKS
BURLINGTON     CLOUDY    26  23  88 NW13      30.39R WCI  15
6HR MIN TEMP:  23; 6HR MAX TEMP:  27;

FAIRFIELD *    FLURRIES  19  14  79 NW17      30.42R WCI   4
FORT MADISON * CLOUDY    27  23  86 W12       30.41R WCI  16
KEOKUK *       CLOUDY    27  23  86 NW13      30.41R WCI  16
OSKALOOSA *    CLOUDY    15  11  85 NW10      30.44S WCI   2
CENTERVILLE *  CLOUDY    19  18  93 W13       30.46R WCI   7
OTTUMWA        CLOUDY    17  11  77 NW15      30.44R WCI   2
6HR MIN TEMP:  17; 6HR MAX TEMP:  27; 6HR PCP: TRACE;

WASHINGTON *   FLURRIES  19  19 100 NW18      30.42R WCI   4
$$

ABBREVIATIONS USED IN REMARKS
   TC - TEMPERATURES IN CELSIUS
  WCI - WIND CHILL INDEX
   HX - HEAT INDEX
  VSB - VISIBILITY
$$



USA.gov is the U.S. government's official web portal to all federal, state and local government web resources and services.